Spearman, TX

4:30 PM CDT on August 29, 2016 (GMT -0500)
Pampa / Mesa Vista

Weather History for KBPC - March, 2014

Change the Weather History Date:

Tuesday, March 18, 2014

  Actual Average (KBGD) Record (KBGD)
Temperature  
Mean Temperature 50 °F 50 °F  
Max Temperature 62 °F 64 °F 87 °F (2007)
Min Temperature 35 °F 37 °F 12 °F (1965)
Degree Days  
Heating Degree Days 16 15  
Month to date heating degree days 316  
Since 1 July heating degree days 3309  
Cooling Degree Days 0 0  
Month to date cooling degree days 0  
Year to date cooling degree days 0  
Moisture  
Dew Point 19 °F    
Average Humidity 32    
Maximum Humidity 65    
Minimum Humidity 14    
Precipitation  
Precipitation 0.00 in 0.04 in 0.98 in (1999)
Month to date precipitation 0.78  
Year to date precipitation 1.99  
Snow  
Snow 0.00 in - 1.00 in (1965)
Month to date snowfall  
Since 1 July snowfall  
Snow Depth -    
Sea Level Pressure  
Sea Level Pressure 29.63 in    
Wind  
Wind Speed 17 mph (NW)    
Max Wind Speed 40 mph    
Max Gust Speed 51 mph    
Visibility 8 miles    
Events      
T = Trace of Precipitation, MM = Missing Value Source: NWS Daily Summary

Daily Weather History Graph

Daily Weather History Graph

Search for Another Location

Airport or City:

Trip Planner

Search our weather history database for the weather conditions in past years. The results will help you decide how hot, cold, wet, or windy it might be!

Date:

Astronomy

Mar. 18, 2014 Rise Set
Actual Time 7:50 AM CDT 7:54 PM CDT
Civil Twilight 7:25 AM CDT 8:19 PM CDT
Nautical Twilight 6:55 AM CDT 8:49 PM CDT
Astronomical Twilight 6:25 AM CDT 9:19 PM CDT
Moon 10:08 PM CDT (3/18) 8:45 AM CDT (3/18)
Length of Visible Light 12h 54m
Length of Day
12h 03m
Waning Gibbous, 96% of the Moon is Illuminated
Mar 18
Waning Gibbous
Mar 23
Last Quarter
Mar 30
New
Apr 7
First Quarter
Apr 15
Full

Hourly Weather History & Observations

Time (CDT) Temp. Windchill Dew Point Humidity Pressure Visibility Wind Dir Wind Speed Gust Speed Precip Events Conditions
12:15 AM 55.4 °F - 19.4 °F 25% 29.34 in 10.0 mi South 16.1 mph 27.6 mph N/A   Clear
12:35 AM 55.4 °F - 19.4 °F 25% 29.34 in 10.0 mi South 17.3 mph 21.9 mph N/A   Clear
12:55 AM 55.4 °F - 17.6 °F 23% 29.34 in 10.0 mi South 16.1 mph 21.9 mph N/A   Clear
1:15 AM 55.4 °F - 17.6 °F 23% 29.33 in 10.0 mi South 18.4 mph 21.9 mph N/A   Clear
1:35 AM 55.4 °F - 17.6 °F 23% 29.33 in 10.0 mi SSW 11.5 mph 20.7 mph N/A   Clear
1:55 AM 55.4 °F - 17.6 °F 23% 29.33 in 10.0 mi SSW 13.8 mph - N/A   Clear
2:15 AM 55.4 °F - 15.8 °F 21% 29.31 in 10.0 mi SSW 15.0 mph 20.7 mph N/A   Clear
2:35 AM 55.4 °F - 14.0 °F 20% 29.31 in 10.0 mi SSW 13.8 mph - N/A   Clear
2:55 AM 51.8 °F - 14.0 °F 22% 29.31 in 10.0 mi SW 9.2 mph - N/A   Clear
3:15 AM 50.0 °F - 14.0 °F 24% 29.31 in 10.0 mi SSW 11.5 mph - N/A   Clear
3:35 AM 48.2 °F - 14.0 °F 25% 29.30 in 10.0 mi SW 9.2 mph - N/A   Clear
3:55 AM 51.8 °F - 14.0 °F 22% 29.29 in 10.0 mi SW 8.1 mph - N/A   Clear
4:15 AM 53.6 °F - 14.0 °F 21% 29.30 in 10.0 mi West 11.5 mph - N/A   Clear
4:35 AM 51.8 °F - 14.0 °F 22% 29.35 in 10.0 mi WNW 15.0 mph 21.9 mph N/A   Clear
4:55 AM 53.6 °F - 19.4 °F 26% 29.36 in 10.0 mi NNW 17.3 mph 21.9 mph N/A   Clear
5:15 AM 51.8 °F - 24.8 °F 35% 29.38 in 10.0 mi NNW 15.0 mph 23.0 mph N/A   Clear
5:35 AM 51.8 °F - 24.8 °F 35% 29.39 in 10.0 mi NNW 17.3 mph 23.0 mph N/A   Clear
5:55 AM 50.0 °F - 24.8 °F 37% 29.41 in 10.0 mi NNW 10.4 mph 17.3 mph N/A   Clear
6:15 AM 48.2 °F - 23.0 °F 37% 29.42 in 10.0 mi NW 11.5 mph 16.1 mph N/A   Clear
6:35 AM 48.2 °F - 23.0 °F 37% 29.43 in 10.0 mi NW 11.5 mph 17.3 mph N/A   Clear
6:55 AM 46.4 °F 40.7 °F 21.2 °F 37% 29.43 in 10.0 mi NW 12.7 mph - N/A   Clear
7:15 AM 46.4 °F 41.1 °F 19.4 °F 34% 29.44 in 10.0 mi NW 11.5 mph - N/A   Clear
7:35 AM 46.4 °F 41.9 °F 19.4 °F 34% 29.44 in 10.0 mi NW 9.2 mph - N/A   Clear
7:55 AM 44.6 °F 40.2 °F 19.4 °F 37% 29.46 in 10.0 mi WNW 8.1 mph - N/A   Clear
8:15 AM 42.8 °F 38.6 °F 19.4 °F 39% 29.47 in 10.0 mi West 6.9 mph - N/A   Clear
8:35 AM 44.6 °F 40.2 °F 19.4 °F 37% 29.49 in 10.0 mi WSW 8.1 mph - N/A   Clear
8:55 AM 46.4 °F 42.9 °F 19.4 °F 34% 29.49 in 10.0 mi West 6.9 mph - N/A   Clear
9:15 AM 46.4 °F 41.5 °F 19.4 °F 34% 29.50 in 10.0 mi West 10.4 mph - N/A   Clear
9:35 AM 50.0 °F - 19.4 °F 30% 29.52 in 10.0 mi WNW 11.5 mph - N/A   Clear
9:55 AM 51.8 °F - 17.6 °F 26% 29.53 in 10.0 mi NW 13.8 mph 17.3 mph N/A   Clear
10:15 AM 51.8 °F - 17.6 °F 26% 29.54 in 10.0 mi NNW 13.8 mph 25.3 mph N/A   Clear
10:35 AM 51.8 °F - 15.8 °F 24% 29.57 in 10.0 mi NW 17.3 mph 24.2 mph N/A   Clear
10:55 AM 53.6 °F - 17.6 °F 24% 29.57 in 10.0 mi NNW 13.8 mph 20.7 mph N/A   Clear
11:15 AM 55.4 °F - 15.8 °F 21% 29.58 in 10.0 mi NNW 20.7 mph 29.9 mph N/A   Clear
11:35 AM 55.4 °F - 15.8 °F 21% 29.60 in 10.0 mi NNW 12.7 mph 20.7 mph N/A   Clear
11:55 AM 57.2 °F - 14.0 °F 18% 29.60 in 10.0 mi NW 19.6 mph 25.3 mph N/A   Clear
12:15 PM 59.0 °F - 14.0 °F 17% 29.60 in 10.0 mi NNW 18.4 mph 25.3 mph N/A   Clear
12:35 PM 59.0 °F - 14.0 °F 17% 29.61 in 10.0 mi NW 15.0 mph 24.2 mph N/A   Clear
12:55 PM 60.8 °F - 14.0 °F 16% 29.62 in 10.0 mi NNW 13.8 mph 24.2 mph N/A   Clear
1:15 PM 60.8 °F - 14.0 °F 16% 29.62 in 10.0 mi NNW 16.1 mph 28.8 mph N/A   Clear
1:35 PM 62.6 °F - 14.0 °F 15% 29.62 in 10.0 mi NNW 18.4 mph 27.6 mph N/A   Clear
1:55 PM 62.6 °F - 14.0 °F 15% 29.62 in 10.0 mi NNW 13.8 mph 26.5 mph N/A   Clear
2:15 PM 60.8 °F - 14.0 °F 16% 29.63 in 10.0 mi NNW 20.7 mph 28.8 mph N/A   Clear
2:35 PM 60.8 °F - 14.0 °F 16% 29.65 in 10.0 mi NW 24.2 mph 31.1 mph N/A   Clear
2:55 PM 62.6 °F - 14.0 °F 15% 29.66 in 10.0 mi NW 29.9 mph 36.8 mph N/A   Clear
3:15 PM 62.6 °F - 12.2 °F 14% 29.67 in 10.0 mi NW 24.2 mph 29.9 mph N/A   Clear
3:35 PM 60.8 °F - 17.6 °F 19% 29.67 in 2.5 mi NW 34.5 mph 44.9 mph N/A   Haze
3:55 PM 59.0 °F - 19.4 °F 22% 29.69 in 1.8 mi NW 34.5 mph 47.2 mph N/A   Haze
4:15 PM 57.2 °F - 23.0 °F 27% 29.71 in 1.0 mi NW 40.3 mph 47.2 mph N/A   Haze
4:35 PM 57.2 °F - 21.2 °F 25% 29.73 in 2.0 mi NW 34.5 mph 44.9 mph N/A   Haze
4:55 PM 57.2 °F - 19.4 °F 23% 29.74 in 2.0 mi NW 27.6 mph 42.6 mph N/A   Haze
5:15 PM 55.4 °F - 19.4 °F 25% 29.75 in 2.0 mi NW 38.0 mph 48.3 mph N/A   Haze
5:35 PM 55.4 °F - 17.6 °F 23% 29.77 in 1.8 mi NNW 36.8 mph 50.6 mph N/A   Haze
5:55 PM 53.6 °F - 19.4 °F 26% 29.80 in 1.8 mi NW 29.9 mph 44.9 mph N/A   Haze
6:15 PM 51.8 °F - 21.2 °F 30% 29.82 in 2.0 mi NW 32.2 mph 44.9 mph N/A   Haze
6:35 PM 51.8 °F - 21.2 °F 30% 29.85 in 2.0 mi NNW 33.4 mph 44.9 mph N/A   Haze
6:55 PM 48.2 °F - 23.0 °F 37% 29.87 in 2.5 mi NNW 33.4 mph 43.7 mph N/A   Haze
7:15 PM 46.4 °F 37.2 °F 23.0 °F 40% 29.90 in 3.0 mi NNW 29.9 mph 42.6 mph N/A   Haze
7:35 PM 46.4 °F 37.0 °F 23.0 °F 40% 29.92 in 4.0 mi NNW 31.1 mph 40.3 mph N/A   Haze
7:55 PM 42.8 °F 32.7 °F 23.0 °F 46% 29.95 in 3.0 mi North 27.6 mph 44.9 mph N/A   Haze
8:15 PM 42.8 °F 33.1 °F 24.8 °F 49% 29.97 in 4.0 mi NNW 25.3 mph 40.3 mph N/A   Haze
8:35 PM 41.0 °F 31.1 °F 24.8 °F 53% 30.00 in 5.0 mi North 23.0 mph 36.8 mph N/A   Haze
8:55 PM 41.0 °F 31.1 °F 24.8 °F 53% 30.00 in 7.0 mi North 23.0 mph 31.1 mph N/A   Scattered Clouds
9:15 PM 41.0 °F 31.9 °F 24.8 °F 53% 30.01 in 7.0 mi North 19.6 mph 29.9 mph N/A   Clear
9:35 PM 41.0 °F 31.4 °F 24.8 °F 53% 30.03 in 7.0 mi North 21.9 mph 29.9 mph N/A   Clear
9:55 PM 41.0 °F 33.5 °F 24.8 °F 53% 30.05 in 7.0 mi North 13.8 mph 28.8 mph N/A   Clear
10:15 PM 39.2 °F 35.0 °F 26.6 °F 61% 30.08 in 7.0 mi North 5.8 mph - N/A   Clear
10:35 PM 37.4 °F 28.9 °F 26.6 °F 65% 30.08 in 7.0 mi NNW 13.8 mph 20.7 mph N/A   Clear
10:55 PM 37.4 °F 32.1 °F 26.6 °F 65% 30.09 in 10.0 mi NNW 6.9 mph 17.3 mph N/A   Clear
11:15 PM 37.4 °F 31.4 °F 26.6 °F 65% 30.09 in 10.0 mi North 8.1 mph - N/A   Clear
11:35 PM 37.4 °F 30.3 °F 26.6 °F 65% 30.10 in 10.0 mi North 10.4 mph - N/A   Clear
11:55 PM 35.6 °F 29.2 °F 24.8 °F 65% 30.10 in 10.0 mi NNW 8.1 mph - N/A   Clear